This is the latest recevied weather packets stored in our database for station/object KC3DGM. If no packets are shown the sender has not sent any weather packets the latest 10 day(s).
| Time | Temp. | Humidity | Pressure | Rain* | Wind** | Luminosity | Snow |
|---|---|---|---|---|---|---|---|
| 1777851596 | 13.89° C | 47% | 983.4 hPa | 0 mm | - | 17 W/m² | - |
| 1777851292 | 13.89° C | 50% | 983.5 hPa | 0 mm | - | 20 W/m² | - |
| 1777850988 | 13.89° C | 49% | 983.5 hPa | 0 mm | - | 19 W/m² | - |
| 1777850686 | 13.89° C | 47% | 983.5 hPa | 0 mm | - | 24 W/m² | - |
| 1777850383 | 13.89° C | 47% | 983.4 hPa | 0 mm | - | 25 W/m² | - |
| 1777850081 | 13.89° C | 47% | 983.3 hPa | 0 mm | - | 26 W/m² | - |
| 1777849777 | 13.89° C | 49% | 983.4 hPa | 0 mm | - | 28 W/m² | - |
| 1777849474 | 13.89° C | 46% | 983.6 hPa | 0 mm | - | 28 W/m² | - |
| 1777849172 | 13.89° C | 47% | 983.6 hPa | 0 mm | - | 34 W/m² | - |
| 1777848868 | 13.89° C | 45% | 983.5 hPa | 0 mm | - | 39 W/m² | - |
| 1777848564 | 13.89° C | 46% | 983.4 hPa | 0 mm | - | 42 W/m² | - |
| 1777848261 | 14.44° C | 45% | 983.6 hPa | 0 mm | - | 48 W/m² | - |
| 1777847959 | 14.44° C | 46% | 983.4 hPa | 0 mm | - | 53 W/m² | - |
| 1777847656 | 14.44° C | 45% | 983.5 hPa | 0 mm | - | 50 W/m² | - |
| 1777847357 | 14.44° C | 48% | 983.5 hPa | 0 mm | - | 47 W/m² | - |
| 1777847055 | 13.89° C | 45% | 983.5 hPa | 0 mm | - | 57 W/m² | - |
| 1777846754 | 14.44° C | 47% | 983.7 hPa | 0 mm | - | 53 W/m² | - |
| 1777846452 | 14.44° C | 43% | 983.5 hPa | 0 mm | - | 45 W/m² | - |
| 1777846148 | 14.44° C | 44% | 983.6 hPa | 0 mm | - | 65 W/m² | - |
| 1777845844 | 14.44° C | 49% | 983.4 hPa | 0 mm | - | 75 W/m² | - |
| 1777845541 | 14.44° C | 45% | 983.4 hPa | 0 mm | - | 73 W/m² | - |
| 1777845238 | 15° C | 46% | 983.3 hPa | 0 mm | - | 77 W/m² | - |
| 1777844936 | 15.56° C | 43% | 983.4 hPa | 0 mm | - | 76 W/m² | - |
| 1777844633 | 15.56° C | 46% | 983.2 hPa | 0 mm | - | 129 W/m² | - |
| 1777844330 | 15.56° C | 41% | 983.5 hPa | 0 mm | - | 170 W/m² | - |
* Rain latest hour (hover to see other rain measurements)
** Current wind speed in m/s (hover to see current wind gust speed)